ATLAS 5 CENTAUR DEB, 57598

Orbit data source: Space-Track

ATLAS 5 CENTAUR DEB, 57598 is space debris in HEO originally from a launch on Wed, 17 Oct 2018 UTC launched from the Air Force Eastern Test Range (AFETR). Debris objects in space refer to the collection of defunct objects orbiting the Earth. Examples of debris include non-operational satellites, rocket bodies, and fragments generated from explosions, collisions, or faulty payload assembly.

Loading next visibility...
Identifier
57598, 2018-079HZ
Orbit
HEO
Country
Flag of USUS
Related business
Flag of USUnited Launch Alliance/Lockheed Martin (US)
Manufacturer
ULA Decatur
Mission
Spacecraft
Bus & Motor
Unknown
Mass
Unknown
Launch date (UTC)
2018-10-17 (8 years ago)
Launch vehicle
Unknown
Launch site
Air Force Eastern Test Range (AFETR)
Object type
Payload
Rocket body
Debris
Shape & HBR
Unknown shape, 1.1 m
Radar Cross Section
RCS unknown

Expand to show TLE details & history
Last TLE update: 2 weeks ago

TLE from 2 weeks ago
0 ATLAS 5 CENTAUR DEB
1 57598U 18079HZ  26242.89257796 -.00000134  00000-0  00000-0 0  9997
2 57598  13.3655  29.0500 4623766 328.5183  10.5209  1.82933921 46745
Epoch: 2026-08-30T21:25Z
TLE epoch observation values (Epoch: 2026-08-30T21:25:18.735Z)
Latitude
-0.00007°
Longitude
88.68128°
Altitude
9,523.17 km
Speed
6.002 km/s
True Right ascension
01h 56m 21s
True Declination
0° 00' 00"
Sunlit
Object was in daylight at epoch
Visualization orbit readout
Latitude
Unknown
Longitude
Unknown
Altitude
Unknown
Speed
Unknown
Apparent Right ascension
Unknown
Apparent Declination
Unknown
Sunlit
N/A
Visualization observer readout
Local Sidereal Time
14:52:13
Azimuth
Unknown
Elevation
Unknown
Doppler factor
Unknown
Orbital elements
Apogee altitude
34,923.141 km
Perigee altitude
8,805.731 km
Semi-major axis
28,242.573 km
Eccentricity
0.46238
Inclination
13.3655°
RAAN
29.05°
Arg. of periapsis
328.5183°
True anomaly
31.26618°
Mean anomaly
10.5209°
Eccentric anomaly
19.25912°
Mean motion
0.45728 °/min
Orbital period
787.26 mins
BSTAR
0
Loading maneuver chart data...
Computing Atmospheric mass density...

Documentation

Showing up to 5 results
|